Location: Dodgeville, WI 53533, USA
(43.0344°N, 90.0900°W)
Time: 18:34:43
(UTC-06:00)

N. Korean satellite - Pass Details

Date: 02 February 2021
Orbit: 451 x 502 km, 97.2° (Epoch: 06 March)

Event Time Altitude Azimuth Distance (km) Brightness Sun altitude
Rises 06:08:19 0° 0° (N) 2,482 10.0 -12.3°
Reaches altitude 10° 06:10:34 10° 348° (NNW) 1,598 9.0 -11.9°
Maximum altitude 06:13:29 27° 289° (WNW) 915 7.4 -11.4°
Drops below altitude 10° 06:16:22 10° 231° (SW) 1,581 8.8 -10.9°
Sets 06:18:35 0° 218° (SW) 2,448 9.9 -10.5°
